Regional Weather Roundup
Issued by NWS

Home | Current Version | Previous Version | Text Only | Print | Product List | Glossary Off
Versions: 1 2 3 4 5 6 7 8 9 10 11 12 13 14 15 16 17 18 19 20 21 22 23 24 25 26 27 28 29 30 31 32 33 34 35 36 37 38 39 40 41 42 43 44 45 46 47 48 49 50

968
ASUS45 KPSR 161210
RWRAZ

ARIZONA HOURLY REGIONAL WEATHER ROUNDUP
NATIONAL WEATHER SERVICE PHOENIX AZ
500 AM MST WED AUG 16 2017

NOTE: FAIR INDICATES FEW OR NO CLOUDS BELOW 12,000 FEET WITH NO
SIGNIFICANT WEATHER AND/OR OBSTRUCTIONS TO VISIBILITY.

AZZ001>003-036-161300-
NORTHWEST ARIZONA

CITY           SKY/WX    TMP DP  RH WIND       PRES   REMARKS
BULLHEAD CITY  CLEAR     82  43  24 CALM      29.77R
KINGMAN        CLEAR     68  35  29 S8        29.96R
6HR MIN TEMP:  63; 6HR MAX TEMP:  74;

$$

AZZ004>008-015-016-018-161300-
NORTH CENTRAL ARIZONA

CITY           SKY/WX    TMP DP  RH WIND       PRES   REMARKS
GRAND CANYON   CLEAR     37  28  70 CALM      30.19S
6HR MIN TEMP:  37; 6HR MAX TEMP:  45;

WILLIAMS       CLEAR     45  30  57 S10       30.19R
PRESCOTT       CLEAR     55  38  52 S8        30.09R
6HR MIN TEMP:  53; 6HR MAX TEMP:  60;

FLAGSTAFF      CLEAR     40  35  83 CALM      30.22R
6HR MIN TEMP:  39; 6HR MAX TEMP:  46;

PAYSON           N/A     57  36  44 CALM      30.12S
PAGE           CLEAR     64  29  26 W3        30.02R
6HR MIN TEMP:  63; 6HR MAX TEMP:  75;

$$

AZZ009>014-017-161300-
NORTHEAST ARIZONA

CITY           SKY/WX    TMP DP  RH WIND       PRES   REMARKS
WINSLOW        CLEAR     54  43  66 E5        30.10R
6HR MIN TEMP:  53; 6HR MAX TEMP:  62;

SAINT JOHNS    CLEAR     57  48  72 S6        30.15R
6HR MIN TEMP:  56; 6HR MAX TEMP:  66;

WINDOW ROCK    CLEAR     43  33  68 CALM      30.21R
6HR MIN TEMP:  42; 6HR MAX TEMP:  56;

SHOW LOW       CLEAR     54  41  62 S7        30.21R
$$

AZZ540-542>544-546-548-161300-
GREATER PHOENIX AREA

CITY           SKY/WX    TMP DP  RH WIND       PRES   REMARKS
PHOENIX        CLEAR     79  46  31 E8        29.83R
6HR MIN TEMP:  79; 6HR MAX TEMP:  89;

BUCKEYE        CLEAR     72  39  30 NE5       29.83R
LUKE AFB       CLEAR     74  52  46 NE7       29.83R
6HR MIN TEMP:  74; 6HR MAX TEMP:  85;

DEER VALLEY    CLEAR     72  34  24 CALM      29.86R
6HR MIN TEMP:  72; 6HR MAX TEMP:  83;

SCOTTSDALE     CLEAR     78  39  24 CALM      29.88R
6HR MIN TEMP:  76; 6HR MAX TEMP:  86;

MESA-GATEWAY   CLEAR     75  50  41 E7        29.88R
$$

AZZ539-553-161300-
SOUTHWEST MARICOPA COUNTY AND PINAL COUNTY

CITY           SKY/WX    TMP DP  RH WIND       PRES   REMARKS
CASA GRANDE    CLEAR     72  58  61 CALM      29.88R
6HR MIN TEMP:  72; 6HR MAX TEMP:  84;

GILA BEND      FAIR      79  40  25 SE8       29.81R
6HR MIN TEMP:  75; 6HR MAX TEMP:  89;

$$

AZZ503-504-507>509-161300-
SOUTHEAST ARIZONA

CITY           SKY/WX    TMP DP  RH WIND       PRES   REMARKS
TUCSON         CLEAR     72  45  37 SE8       29.99R
DAVIS-MONTHAN  CLEAR     67  49  53 E3        29.98R
6HR MIN TEMP:  67; 6HR MAX TEMP:  78;

NOGALES        CLEAR     60  47  61 CALM      30.07R
6HR MIN TEMP:  58; 6HR MAX TEMP:  70;

SIERRA VISTA   CLEAR     62  54  74 NE7       30.12R
6HR MIN TEMP:  62; 6HR MAX TEMP:  74;

DOUGLAS        CLEAR     62  60  93 SE10      30.09R
6HR MIN TEMP:  62; 6HR MAX TEMP:  71;

SAFFORD        CLEAR     67  49  52 CALM      29.98R
6HR MIN TEMP:  67; 6HR MAX TEMP:  79; 6HR PCP: TRACE;

$$

AZZ532-161300-
SOUTHWEST ARIZONA

CITY           SKY/WX    TMP DP  RH WIND       PRES   REMARKS
YUMA           NOT AVBL
$$

CAZ041-043-047-048-061-525>527-560>570-161300-
SOUTHERN CALIFORNIA

CITY           SKY/WX    TMP DP  RH WIND       PRES   REMARKS
DOWNTOWN L.A.  CLOUDY    69  59  70 CALM      29.93S
6HR MIN TEMP:  68; 6HR MAX TEMP:  72;

L.A. AIRPORT   CLOUDY    67  59  75 CALM      29.94R
6HR MIN TEMP:  67; 6HR MAX TEMP:  68;

SAN DIEGO      MOCLDY    68  57  68 VRB5      29.96S
6HR MIN TEMP:  66; 6HR MAX TEMP:  68;

BURBANK        CLOUDY    66  57  72 SE6       29.94R
6HR MIN TEMP:  64; 6HR MAX TEMP:  67;

ONTARIO        CLOUDY    64  57  78 S6        29.95R
6HR MIN TEMP:  62; 6HR MAX TEMP:  65;

RIVERSIDE      CLOUDY    64  59  83 CALM      29.95S
6HR MIN TEMP:  61; 6HR MAX TEMP:  64;

PALM SPRINGS   CLEAR     73  55  53 CALM      29.78R
6HR MIN TEMP:  73; 6HR MAX TEMP:  83;

EL CENTRO NAS  CLEAR     80  26  13 W16       29.77S
6HR MIN TEMP:  79; 6HR MAX TEMP:  83;

IMPERIAL       CLEAR     77  36  22 W9        29.75R
6HR MIN TEMP:  76; 6HR MAX TEMP:  83;

BLYTHE         CLEAR     75  36  24 S8        29.76R
6HR MIN TEMP:  75; 6HR MAX TEMP:  85;

NEEDLES        CLEAR     82  34  17 W7        29.78R
6HR MIN TEMP:  82; 6HR MAX TEMP:  92;

$$

NVZ020-UTZ003-161300-
SOUTHERN NEVADA-UTAH

CITY           SKY/WX    TMP DP  RH WIND       PRES   REMARKS
LAS VEGAS      CLEAR     78  39  24 CALM      29.84R
6HR MIN TEMP:  77; 6HR MAX TEMP:  88;

SALT LAKE CITY CLEAR     64  35  34 S8        30.02R
6HR MIN TEMP:  60; 6HR MAX TEMP:  67;

$$

NMZ009-TXZ055-161300-
NEW MEXICO-WEST TEXAS

CITY           SKY/WX    TMP DP  RH WIND       PRES   REMARKS
ALBUQUERQUE    PTCLDY    60  42  51 E7        30.12R
6HR MIN TEMP:  60; 6HR MAX TEMP:  73;

EL PASO        PTCLDY    79  54  41 W13       30.01R
6HR MIN TEMP:  75; 6HR MAX TEMP:  82;

$$


........................KEY........................
SKY/WX - SKY CONDITION/WEATHER
TMP    - TEMPERATURE IN FAHRENHEIT
DP     - DEW POINT IN FAHRENHEIT
RH     - RELATIVE HUMIDITY IN PERCENT
WIND   - DIRECTION AND SPEED IN MILES PER HOUR (MPH)
VRB    - VARIABLE WIND DIRECTION
PRES   - MEAN SEA LEVEL PRESSURE IN INCHES OF MERCURY
         F - FALLING PRESSURE   R - RISING PRESSURE
         S - STEADY PRESSURE
VSB    - VISIBILITY IN MILES
HX     - HEAT INDEX IN FAHRENHEIT
WCI    - WIND CHILL INDEX IN FAHRENHEIT
TC     - TEMPERATURE IN CELSIUS WHICH IS ALSO KNOWN AS
         TEMPERATURE IN CENTIGRADE
AFB    - AIR FORCE BASE
         LUKE AFB IS LUKE AIR FORCE BASE
         DAVIS-MONTHAN IS DAVIS-MONTHAN AIR FORCE BASE
NAS    - NAVAL AIR STATION
         EL CENTRO NAS IS EL CENTRO NAVAL AIR STATION
N/A    - NOT AVAILABLE





USA.gov is the U.S. government's official web portal to all federal, state and local government web resources and services.